Time,TemperatureF,DewpointF,PressureIn,WindDirection,WindDirectionDegrees,WindSpeedMPH,WindSpeedGustMPH,Humidity,HourlyPrecipIn,Conditions,Clouds,dailyrainin,SoftwareType,DateUTC
2013-01-17 00:00:00,25.7,19.7,29.76,SSW,202,0.0,0.0,78,0.00,,,0.00,WUHU21623XXSP,2013-01-17 05:00:00,
2013-01-17 00:01:00,25.7,19.7,29.76,SSW,202,0.0,0.0,78,0.00,,,0.00,WUHU21623XXSP,2013-01-17 05:01:00,
2013-01-17 00:03:00,25.5,19.5,29.76,SSW,202,0.0,0.0,78,0.00,,,0.00,WUHU21623XXSP,2013-01-17 05:03:00,
2013-01-17 00:08:00,25.7,19.7,29.76,SSW,202,0.0,0.0,78,0.00,,,0.00,WUHU21623XXSP,2013-01-17 05:08:00,
2013-01-17 00:13:00,25.9,20.1,29.77,SSW,202,0.0,0.0,79,0.00,,,0.00,WUHU21623XXSP,2013-01-17 05:13:00,
2013-01-17 00:18:00,26.1,20.3,29.77,SSW,202,0.0,0.0,79,0.00,,,0.00,WUHU21623XXSP,2013-01-17 05:18:00,
2013-01-17 00:23:00,26.1,20.3,29.77,SSW,202,0.0,0.0,79,0.00,,,0.00,WUHU21623XXSP,2013-01-17 05:23:00,
2013-01-17 00:28:00,25.7,19.7,29.76,SSW,202,0.0,0.0,78,0.00,,,0.00,WUHU21623XXSP,2013-01-17 05:28:00,
2013-01-17 00:33:00,25.7,19.7,29.76,SSW,202,0.0,0.0,78,0.00,,,0.00,WUHU21623XXSP,2013-01-17 05:33:00,
2013-01-17 00:38:00,25.5,19.5,29.77,SSW,202,0.0,0.0,78,0.00,,,0.00,WUHU21623XXSP,2013-01-17 05:38:00,
2013-01-17 00:43:00,25.0,19.0,29.77,SSW,202,0.0,0.0,78,0.00,,,0.00,WUHU21623XXSP,2013-01-17 05:43:00,
2013-01-17 00:48:00,24.4,18.4,29.77,SSW,202,0.0,0.0,78,0.00,,,0.00,WUHU21623XXSP,2013-01-17 05:48:00,
2013-01-17 00:53:00,23.9,17.9,29.77,SSW,202,0.0,0.0,78,0.00,,,0.00,WUHU21623XXSP,2013-01-17 05:53:00,
2013-01-17 00:58:00,23.7,17.7,29.77,SSW,202,0.0,0.0,78,0.00,,,0.00,WUHU21623XXSP,2013-01-17 05:58:00,
2013-01-17 01:03:00,23.5,17.5,29.77,SSW,202,0.0,0.0,78,0.00,,,0.00,WUHU21623XXSP,2013-01-17 06:03:00,
2013-01-17 01:08:00,23.4,17.4,29.78,SSW,202,0.0,0.0,78,0.00,,,0.00,WUHU21623XXSP,2013-01-17 06:08:00,
2013-01-17 01:13:00,23.4,17.4,29.78,SSW,202,0.0,0.0,78,0.00,,,0.00,WUHU21623XXSP,2013-01-17 06:13:00,
2013-01-17 01:18:00,23.2,17.2,29.78,SSW,202,0.0,0.0,78,0.00,,,0.00,WUHU21623XXSP,2013-01-17 06:18:00,
2013-01-17 01:23:00,23.2,17.2,29.78,SSW,202,0.0,0.0,78,0.00,,,0.00,WUHU21623XXSP,2013-01-17 06:23:00,
2013-01-17 01:28:00,23.2,16.9,29.78,SSW,202,0.0,0.0,77,0.00,,,0.00,WUHU21623XXSP,2013-01-17 06:28:00,
2013-01-17 01:33:00,22.6,16.3,29.78,SSW,202,0.0,0.0,77,0.00,,,0.00,WUHU21623XXSP,2013-01-17 06:33:00,
2013-01-17 01:38:00,22.3,16.1,29.78,SSW,202,0.0,0.0,77,0.00,,,0.00,WUHU21623XXSP,2013-01-17 06:38:00,
2013-01-17 01:43:00,21.9,15.7,29.78,SSW,202,0.0,0.0,77,0.00,,,0.00,WUHU21623XXSP,2013-01-17 06:43:00,
2013-01-17 01:48:00,21.9,15.7,29.78,SSW,202,0.0,0.0,77,0.00,,,0.00,WUHU21623XXSP,2013-01-17 06:48:00,
2013-01-17 01:53:00,21.7,15.5,29.79,SSW,202,0.0,0.0,77,0.00,,,0.00,WUHU21623XXSP,2013-01-17 06:53:00,
2013-01-17 01:58:00,21.9,15.7,29.79,SSW,202,0.0,0.0,77,0.00,,,0.00,WUHU21623XXSP,2013-01-17 06:58:00,
2013-01-17 02:03:00,21.7,15.5,29.79,SSW,202,0.0,0.0,77,0.00,,,0.00,WUHU21623XXSP,2013-01-17 07:03:00,
2013-01-17 02:08:00,21.7,15.5,29.80,SW,225,0.0,3.2,77,0.00,,,0.00,WUHU21623XXSP,2013-01-17 07:08:00,
2013-01-17 02:13:00,22.5,16.3,29.80,SW,225,0.0,3.2,77,0.00,,,0.00,WUHU21623XXSP,2013-01-17 07:13:00,
2013-01-17 02:18:00,22.5,16.5,29.80,SW,225,0.0,1.5,78,0.00,,,0.00,WUHU21623XXSP,2013-01-17 07:18:00,
2013-01-17 02:23:00,22.5,16.3,29.80,SW,225,0.0,1.5,77,0.00,,,0.00,WUHU21623XXSP,2013-01-17 07:23:00,
2013-01-17 02:28:00,22.1,15.9,29.80,SW,225,0.0,1.3,77,0.00,,,0.00,WUHU21623XXSP,2013-01-17 07:28:00,
2013-01-17 02:33:00,21.9,15.7,29.79,SW,225,0.0,1.5,77,0.00,,,0.00,WUHU21623XXSP,2013-01-17 07:33:00,
2013-01-17 02:38:00,21.4,15.2,29.79,SW,225,0.0,1.5,77,0.00,,,0.00,WUHU21623XXSP,2013-01-17 07:38:00,
2013-01-17 02:43:00,21.0,14.8,29.79,SW,225,0.0,0.0,77,0.00,,,0.00,WUHU21623XXSP,2013-01-17 07:43:00,
2013-01-17 02:48:00,20.8,14.6,29.79,SW,225,0.0,0.0,77,0.00,,,0.00,WUHU21623XXSP,2013-01-17 07:48:00,
2013-01-17 02:53:00,20.7,14.5,29.78,SW,225,0.0,0.0,77,0.00,,,0.00,WUHU21623XXSP,2013-01-17 07:53:00,
2013-01-17 02:58:00,20.5,14.3,29.78,SW,225,0.0,0.0,77,0.00,,,0.00,WUHU21623XXSP,2013-01-17 07:58:00,
2013-01-17 03:03:00,20.3,14.1,29.78,SW,225,0.0,0.0,77,0.00,,,0.00,WUHU21623XXSP,2013-01-17 08:03:00,
2013-01-17 03:08:00,20.1,13.6,29.78,SW,225,0.0,0.0,76,0.00,,,0.00,WUHU21623XXSP,2013-01-17 08:08:00,
2013-01-17 03:13:00,20.1,13.6,29.78,SW,225,0.0,0.0,76,0.00,,,0.00,WUHU21623XXSP,2013-01-17 08:13:00,
2013-01-17 03:18:00,19.9,13.4,29.78,SW,225,0.0,0.0,76,0.00,,,0.00,WUHU21623XXSP,2013-01-17 08:18:00,
2013-01-17 03:23:00,19.8,13.3,29.77,SW,225,0.0,0.0,76,0.00,,,0.00,WUHU21623XXSP,2013-01-17 08:23:00,
2013-01-17 03:28:00,19.8,13.3,29.77,SW,225,0.0,0.0,76,0.00,,,0.00,WUHU21623XXSP,2013-01-17 08:28:00,
2013-01-17 03:33:00,19.8,13.3,29.77,SW,225,0.0,0.0,76,0.00,,,0.00,WUHU21623XXSP,2013-01-17 08:33:00,
2013-01-17 03:38:00,19.8,13.3,29.77,SW,225,0.0,2.4,76,0.00,,,0.00,WUHU21623XXSP,2013-01-17 08:38:00,
2013-01-17 03:43:00,19.8,13.3,29.77,SW,225,0.0,2.4,76,0.00,,,0.00,WUHU21623XXSP,2013-01-17 08:43:00,
2013-01-17 03:48:00,19.6,13.1,29.77,SW,225,0.0,0.0,76,0.00,,,0.00,WUHU21623XXSP,2013-01-17 08:48:00,
2013-01-17 03:53:00,19.6,13.1,29.78,SW,225,0.0,0.0,76,0.00,,,0.00,WUHU21623XXSP,2013-01-17 08:53:00,
2013-01-17 03:58:00,19.8,13.3,29.78,SW,225,0.0,1.9,76,0.00,,,0.00,WUHU21623XXSP,2013-01-17 08:58:00,
2013-01-17 04:03:00,19.9,13.4,29.78,SW,225,0.0,1.9,76,0.00,,,0.00,WUHU21623XXSP,2013-01-17 09:03:00,
2013-01-17 04:08:00,20.1,13.9,29.78,SW,225,0.0,3.8,77,0.00,,,0.00,WUHU21623XXSP,2013-01-17 09:08:00,
2013-01-17 04:13:00,20.3,14.1,29.78,SW,225,0.0,3.8,77,0.00,,,0.00,WUHU21623XXSP,2013-01-17 09:13:00,
2013-01-17 04:18:00,20.3,14.1,29.78,SW,225,0.0,0.0,77,0.00,,,0.00,WUHU21623XXSP,2013-01-17 09:18:00,
2013-01-17 04:23:00,20.3,14.1,29.78,SW,225,0.0,0.0,77,0.00,,,0.00,WUHU21623XXSP,2013-01-17 09:23:00,
2013-01-17 04:28:00,20.7,14.5,29.78,SW,225,0.0,0.0,77,0.00,,,0.00,WUHU21623XXSP,2013-01-17 09:28:00,
2013-01-17 04:33:00,20.8,14.6,29.78,SW,225,0.0,0.0,77,0.00,,,0.00,WUHU21623XXSP,2013-01-17 09:33:00,
2013-01-17 04:38:00,20.8,14.6,29.78,SW,225,0.0,0.0,77,0.00,,,0.00,WUHU21623XXSP,2013-01-17 09:38:00,
2013-01-17 04:43:00,20.8,14.6,29.78,SW,225,0.0,0.0,77,0.00,,,0.00,WUHU21623XXSP,2013-01-17 09:43:00,
2013-01-17 04:48:00,21.2,15.0,29.78,SW,225,0.0,0.0,77,0.00,,,0.00,WUHU21623XXSP,2013-01-17 09:48:00,
2013-01-17 04:53:00,21.4,15.2,29.78,SW,225,0.0,0.0,77,0.00,,,0.00,WUHU21623XXSP,2013-01-17 09:53:00,
2013-01-17 04:58:00,21.4,15.2,29.78,SW,225,0.0,0.0,77,0.00,,,0.00,WUHU21623XXSP,2013-01-17 09:58:00,
2013-01-17 05:03:00,21.6,15.4,29.78,SW,225,0.0,0.0,77,0.00,,,0.00,WUHU21623XXSP,2013-01-17 10:03:00,
2013-01-17 05:08:00,21.6,15.4,29.79,SW,225,0.0,0.0,77,0.00,,,0.00,WUHU21623XXSP,2013-01-17 10:08:00,
2013-01-17 05:13:00,21.7,15.5,29.78,SW,225,0.0,0.0,77,0.00,,,0.00,WUHU21623XXSP,2013-01-17 10:13:00,
2013-01-17 05:18:00,21.9,16.0,29.79,SW,225,0.0,0.0,78,0.00,,,0.00,WUHU21623XXSP,2013-01-17 10:18:00,
2013-01-17 05:23:00,21.9,16.0,29.79,SW,225,0.0,0.0,78,0.00,,,0.00,WUHU21623XXSP,2013-01-17 10:23:00,
2013-01-17 05:28:00,22.1,16.2,29.79,SW,225,0.0,0.0,78,0.00,,,0.00,WUHU21623XXSP,2013-01-17 10:28:00,
2013-01-17 05:33:00,22.3,16.3,29.79,SW,225,0.0,0.0,78,0.00,,,0.00,WUHU21623XXSP,2013-01-17 10:33:00,
2013-01-17 05:38:00,22.5,16.5,29.79,SW,225,0.0,1.0,78,0.00,,,0.00,WUHU21623XXSP,2013-01-17 10:38:00,
2013-01-17 05:43:00,22.5,16.5,29.79,SW,225,0.0,1.0,78,0.00,,,0.00,WUHU21623XXSP,2013-01-17 10:43:00,
2013-01-17 05:48:00,22.5,16.5,29.79,SW,225,0.0,0.0,78,0.00,,,0.00,WUHU21623XXSP,2013-01-17 10:48:00,
2013-01-17 05:53:00,22.6,16.6,29.79,SW,225,0.0,0.0,78,0.00,,,0.00,WUHU21623XXSP,2013-01-17 10:53:00,
2013-01-17 05:58:00,22.6,16.6,29.79,SW,225,0.0,0.0,78,0.00,,,0.00,WUHU21623XXSP,2013-01-17 10:58:00,
2013-01-17 06:03:00,22.6,16.6,29.79,SW,225,0.0,0.0,78,0.00,,,0.00,WUHU21623XXSP,2013-01-17 11:03:00,
2013-01-17 06:08:00,22.6,16.6,29.79,SW,225,0.0,0.0,78,0.00,,,0.00,WUHU21623XXSP,2013-01-17 11:08:00,
2013-01-17 06:13:00,22.6,16.6,29.79,SW,225,0.0,0.0,78,0.00,,,0.00,WUHU21623XXSP,2013-01-17 11:13:00,
2013-01-17 06:18:00,22.8,16.8,29.79,SW,225,0.0,0.0,78,0.00,,,0.00,WUHU21623XXSP,2013-01-17 11:18:00,
2013-01-17 06:23:00,22.8,16.8,29.79,SW,225,0.0,0.0,78,0.00,,,0.00,WUHU21623XXSP,2013-01-17 11:23:00,
2013-01-17 06:28:00,23.2,17.2,29.80,SW,225,0.0,0.0,78,0.00,,,0.00,WUHU21623XXSP,2013-01-17 11:28:00,
2013-01-17 06:33:00,23.2,17.2,29.80,SW,225,0.0,0.0,78,0.00,,,0.00,WUHU21623XXSP,2013-01-17 11:33:00,
2013-01-17 06:38:00,23.2,17.2,29.80,SW,225,0.0,0.0,78,0.00,,,0.00,WUHU21623XXSP,2013-01-17 11:38:00,
2013-01-17 06:43:00,23.2,17.2,29.81,SW,225,0.0,0.0,78,0.00,,,0.00,WUHU21623XXSP,2013-01-17 11:43:00,
2013-01-17 06:48:00,23.0,17.0,29.80,SW,225,0.0,0.0,78,0.00,,,0.00,WUHU21623XXSP,2013-01-17 11:48:00,
2013-01-17 06:53:00,22.8,16.8,29.80,SW,225,0.0,0.0,78,0.00,,,0.00,WUHU21623XXSP,2013-01-17 11:53:00,
2013-01-17 06:58:00,22.6,16.6,29.80,SW,225,0.0,0.0,78,0.00,,,0.00,WUHU21623XXSP,2013-01-17 11:58:00,
2013-01-17 07:03:00,22.6,16.6,29.80,SW,225,0.0,0.0,78,0.00,,,0.00,WUHU21623XXSP,2013-01-17 12:03:00,
2013-01-17 07:08:00,22.5,16.5,29.80,SW,225,0.0,0.0,78,0.00,,,0.00,WUHU21623XXSP,2013-01-17 12:08:00,
2013-01-17 07:13:00,22.6,16.6,29.81,SW,225,1.2,1.2,78,0.00,,,0.00,WUHU21623XXSP,2013-01-17 12:13:00,
2013-01-17 07:18:00,22.6,16.6,29.81,SW,225,0.0,2.3,78,0.00,,,0.00,WUHU21623XXSP,2013-01-17 12:18:00,
2013-01-17 07:23:00,22.8,16.8,29.81,SW,225,0.0,2.3,78,0.00,,,0.00,WUHU21623XXSP,2013-01-17 12:23:00,
2013-01-17 07:28:00,23.0,17.0,29.81,SW,225,0.0,0.0,78,0.00,,,0.00,WUHU21623XXSP,2013-01-17 12:28:00,
2013-01-17 07:33:00,23.4,17.7,29.81,SW,225,0.0,0.0,79,0.00,,,0.00,WUHU21623XXSP,2013-01-17 12:33:00,
2013-01-17 07:38:00,23.4,17.7,29.82,SW,225,0.0,2.4,79,0.00,,,0.00,WUHU21623XXSP,2013-01-17 12:38:00,
2013-01-17 07:43:00,23.4,17.7,29.82,SW,225,0.0,2.4,79,0.00,,,0.00,WUHU21623XXSP,2013-01-17 12:43:00,
2013-01-17 07:48:00,23.5,17.8,29.82,SW,225,0.0,0.0,79,0.00,,,0.00,WUHU21623XXSP,2013-01-17 12:48:00,
2013-01-17 07:53:00,23.9,18.2,29.83,SW,225,0.0,0.0,79,0.00,,,0.00,WUHU21623XXSP,2013-01-17 12:53:00,
2013-01-17 07:58:00,23.9,18.2,29.83,SW,225,0.0,0.0,79,0.00,,,0.00,WUHU21623XXSP,2013-01-17 12:58:00,
2013-01-17 08:03:00,24.3,18.6,29.83,SW,225,0.0,0.0,79,0.00,,,0.00,WUHU21623XXSP,2013-01-17 13:03:00,
2013-01-17 08:08:00,24.4,18.7,29.84,SW,225,0.0,0.0,79,0.00,,,0.00,WUHU21623XXSP,2013-01-17 13:08:00,
2013-01-17 08:13:00,24.6,18.9,29.85,SW,225,0.0,0.0,79,0.00,,,0.00,WUHU21623XXSP,2013-01-17 13:13:00,
2013-01-17 08:18:00,25.0,19.6,29.85,SW,225,0.0,0.0,80,0.00,,,0.00,WUHU21623XXSP,2013-01-17 13:18:00,
2013-01-17 08:23:00,25.3,19.9,29.85,SW,225,0.0,0.0,80,0.00,,,0.00,WUHU21623XXSP,2013-01-17 13:23:00,
2013-01-17 08:28:00,25.7,20.2,29.85,SE,135,1.2,5.4,80,0.00,,,0.00,WUHU21623XXSP,2013-01-17 13:28:00,
2013-01-17 08:33:00,26.1,20.6,29.85,SE,135,0.0,5.4,80,0.00,,,0.00,WUHU21623XXSP,2013-01-17 13:33:00,
2013-01-17 08:38:00,26.2,20.7,29.85,SE,135,0.0,1.5,80,0.00,,,0.00,WUHU21623XXSP,2013-01-17 13:38:00,
2013-01-17 08:43:00,26.8,21.3,29.85,SE,135,0.0,0.0,80,0.00,,,0.00,WUHU21623XXSP,2013-01-17 13:43:00,
2013-01-17 08:48:00,27.1,21.6,29.86,SE,135,0.0,0.0,80,0.00,,,0.00,WUHU21623XXSP,2013-01-17 13:48:00,
2013-01-17 08:53:00,27.5,22.3,29.86,SE,135,0.0,0.0,81,0.00,,,0.00,WUHU21623XXSP,2013-01-17 13:53:00,
2013-01-17 08:58:00,27.9,22.7,29.86,SE,135,0.0,0.0,81,0.00,,,0.00,WUHU21623XXSP,2013-01-17 13:58:00,
2013-01-17 09:03:00,28.0,22.8,29.86,SE,135,0.0,0.0,81,0.00,,,0.00,WUHU21623XXSP,2013-01-17 14:03:00,
2013-01-17 09:08:00,28.4,23.2,29.86,SE,135,0.0,0.0,81,0.00,,,0.00,WUHU21623XXSP,2013-01-17 14:08:00,
2013-01-17 09:13:00,28.6,23.4,29.86,SE,135,0.0,0.0,81,0.00,,,0.00,WUHU21623XXSP,2013-01-17 14:13:00,
2013-01-17 09:18:00,29.1,23.9,29.85,SE,135,0.0,0.0,81,0.00,,,0.00,WUHU21623XXSP,2013-01-17 14:18:00,
2013-01-17 09:23:00,29.7,24.4,29.86,SE,135,0.0,0.0,81,0.00,,,0.00,WUHU21623XXSP,2013-01-17 14:23:00,
2013-01-17 09:28:00,30.0,25.0,29.86,SE,135,0.0,0.0,82,0.00,,,0.00,WUHU21623XXSP,2013-01-17 14:28:00,
2013-01-17 09:33:00,30.6,25.6,29.87,SE,135,0.0,0.0,82,0.00,,,0.00,WUHU21623XXSP,2013-01-17 14:33:00,
2013-01-17 09:38:00,31.3,26.3,29.87,SE,135,0.0,0.0,82,0.00,,,0.00,WUHU21623XXSP,2013-01-17 14:38:00,
2013-01-17 09:43:00,31.6,26.6,29.86,SE,135,0.0,0.0,82,0.00,,,0.00,WUHU21623XXSP,2013-01-17 14:43:00,
2013-01-17 09:48:00,32.4,27.4,29.86,SE,135,0.0,0.0,82,0.00,,,0.00,WUHU21623XXSP,2013-01-17 14:48:00,
2013-01-17 09:53:00,32.7,27.7,29.86,SE,135,0.0,0.0,82,0.00,,,0.00,WUHU21623XXSP,2013-01-17 14:53:00,
2013-01-17 09:58:00,32.9,27.9,29.86,SE,135,0.0,0.0,82,0.00,,,0.00,WUHU21623XXSP,2013-01-17 14:58:00,
2013-01-17 10:03:00,33.3,28.2,29.86,South,180,0.0,4.3,82,0.00,,,0.00,WUHU21623XXSP,2013-01-17 15:03:00,
2013-01-17 10:08:00,33.8,28.7,29.86,South,180,0.0,5.5,82,0.00,,,0.00,WUHU21623XXSP,2013-01-17 15:08:00,
2013-01-17 10:13:00,34.2,29.1,29.86,South,180,1.7,5.5,82,0.00,,,0.00,WUHU21623XXSP,2013-01-17 15:13:00,
2013-01-17 10:18:00,34.5,29.4,29.87,West,270,5.6,11.1,82,0.00,,,0.00,WUHU21623XXSP,2013-01-17 15:18:00,
2013-01-17 10:23:00,34.7,29.6,29.87,NNE,22,1.5,11.1,82,0.00,,,0.00,WUHU21623XXSP,2013-01-17 15:23:00,
2013-01-17 10:28:00,35.1,29.7,29.86,WSW,247,1.2,11.3,81,0.00,,,0.00,WUHU21623XXSP,2013-01-17 15:28:00,
2013-01-17 10:33:00,35.2,29.8,29.86,SSW,202,2.8,11.3,81,0.00,,,0.00,WUHU21623XXSP,2013-01-17 15:33:00,
2013-01-17 10:38:00,35.2,29.5,29.86,SW,225,1.3,10.3,80,0.00,,,0.00,WUHU21623XXSP,2013-01-17 15:38:00,
2013-01-17 10:43:00,35.8,30.1,29.86,WSW,247,1.5,10.3,80,0.00,,,0.00,WUHU21623XXSP,2013-01-17 15:43:00,
2013-01-17 10:48:00,35.8,29.8,29.86,WSW,247,5.5,8.5,79,0.00,,,0.00,WUHU21623XXSP,2013-01-17 15:48:00,
2013-01-17 10:53:00,35.6,29.6,29.86,WSW,247,1.5,8.5,79,0.00,,,0.00,WUHU21623XXSP,2013-01-17 15:53:00,
2013-01-17 10:58:00,35.8,29.5,29.86,West,270,3.1,6.9,78,0.00,,,0.00,WUHU21623XXSP,2013-01-17 15:58:00,
2013-01-17 11:03:00,36.0,29.7,29.87,West,270,4.4,7.8,78,0.00,,,0.00,WUHU21623XXSP,2013-01-17 16:03:00,
2013-01-17 11:08:00,36.0,29.4,29.88,SSE,157,2.3,12.9,77,0.00,,,0.00,WUHU21623XXSP,2013-01-17 16:08:00,
2013-01-17 11:13:00,36.0,29.1,29.87,WNW,292,7.0,12.9,76,0.00,,,0.00,WUHU21623XXSP,2013-01-17 16:13:00,
2013-01-17 11:18:00,36.0,29.1,29.87,WNW,292,7.2,11.5,76,0.00,,,0.00,WUHU21623XXSP,2013-01-17 16:18:00,
2013-01-17 11:23:00,36.0,28.7,29.88,West,270,4.2,12.7,75,0.00,,,0.00,WUHU21623XXSP,2013-01-17 16:23:00,
2013-01-17 11:28:00,36.3,28.7,29.88,West,270,3.7,12.7,74,0.00,,,0.00,WUHU21623XXSP,2013-01-17 16:28:00,
2013-01-17 11:33:00,36.3,28.7,29.88,West,270,5.3,10.8,74,0.00,,,0.00,WUHU21623XXSP,2013-01-17 16:33:00,
2013-01-17 11:38:00,36.5,28.6,29.88,WSW,247,5.0,10.0,73,0.00,,,0.00,WUHU21623XXSP,2013-01-17 16:38:00,
2013-01-17 11:43:00,36.9,28.9,29.88,West,270,7.1,10.0,73,0.00,,,0.00,WUHU21623XXSP,2013-01-17 16:43:00,
2013-01-17 11:48:00,37.0,28.7,29.88,West,270,5.0,10.7,72,0.00,,,0.00,WUHU21623XXSP,2013-01-17 16:48:00,
2013-01-17 11:53:00,36.9,28.6,29.88,West,270,5.1,13.6,72,0.00,,,0.00,WUHU21623XXSP,2013-01-17 16:53:00,
2013-01-17 11:58:00,36.9,28.3,29.88,West,270,6.1,13.6,71,0.00,,,0.00,WUHU21623XXSP,2013-01-17 16:58:00,
2013-01-17 12:03:00,36.0,27.1,29.89,WNW,292,4.2,10.6,70,0.00,,,0.00,WUHU21623XXSP,2013-01-17 17:03:00,
2013-01-17 12:08:00,34.9,25.7,29.89,SW,225,5.1,10.6,69,0.00,,,0.00,WUHU21623XXSP,2013-01-17 17:08:00,
2013-01-17 12:13:00,34.2,25.0,29.90,SW,225,2.1,10.6,69,0.00,,,0.00,WUHU21623XXSP,2013-01-17 17:13:00,
2013-01-17 12:18:00,34.2,25.0,29.90,SW,225,6.7,10.6,69,0.00,,,0.00,WUHU21623XXSP,2013-01-17 17:18:00,
2013-01-17 12:23:00,34.2,25.0,29.91,WSW,247,5.9,11.6,69,0.00,,,0.00,WUHU21623XXSP,2013-01-17 17:23:00,
2013-01-17 12:28:00,34.2,25.0,29.91,West,270,3.5,11.6,69,0.00,,,0.00,WUHU21623XXSP,2013-01-17 17:28:00,
2013-01-17 12:33:00,34.2,25.0,29.91,SW,225,3.2,11.4,69,0.00,,,0.00,WUHU21623XXSP,2013-01-17 17:33:00,
2013-01-17 12:38:00,34.3,25.1,29.92,WNW,292,2.2,9.4,69,0.00,,,0.00,WUHU21623XXSP,2013-01-17 17:38:00,
2013-01-17 12:43:00,34.3,25.1,29.91,WSW,247,5.2,9.4,69,0.00,,,0.00,WUHU21623XXSP,2013-01-17 17:43:00,
2013-01-17 12:48:00,34.3,24.7,29.92,SW,225,3.1,8.3,68,0.00,,,0.00,WUHU21623XXSP,2013-01-17 17:48:00,
2013-01-17 12:53:00,34.5,24.9,29.92,WNW,292,7.1,8.3,68,0.00,,,0.00,WUHU21623XXSP,2013-01-17 17:53:00,
2013-01-17 12:58:00,34.5,24.6,29.93,West,270,0.0,8.3,67,0.00,,,0.00,WUHU21623XXSP,2013-01-17 17:58:00,
2013-01-17 13:03:00,34.7,24.8,29.93,West,270,5.6,8.3,67,0.00,,,0.00,WUHU21623XXSP,2013-01-17 18:03:00,
2013-01-17 13:08:00,34.5,24.2,29.94,WSW,247,6.4,7.5,66,0.00,,,0.00,WUHU21623XXSP,2013-01-17 18:08:00,
2013-01-17 13:13:00,34.5,23.8,29.94,WSW,247,6.3,10.6,65,0.00,,,0.00,WUHU21623XXSP,2013-01-17 18:13:00,
2013-01-17 13:18:00,34.5,23.5,29.94,WSW,247,6.1,12.8,64,0.00,,,0.00,WUHU21623XXSP,2013-01-17 18:18:00,
2013-01-17 13:23:00,34.3,23.3,29.94,SSW,202,2.6,12.8,64,0.00,,,0.00,WUHU21623XXSP,2013-01-17 18:23:00,
2013-01-17 13:28:00,34.2,22.8,29.94,SSW,202,0.0,11.9,63,0.00,,,0.00,WUHU21623XXSP,2013-01-17 18:28:00,
2013-01-17 13:33:00,34.3,22.5,29.95,SW,225,5.1,11.9,62,0.00,,,0.00,WUHU21623XXSP,2013-01-17 18:33:00,
2013-01-17 13:38:00,34.2,22.0,29.95,West,270,0.0,14.3,61,0.00,,,0.00,WUHU21623XXSP,2013-01-17 18:38:00,
2013-01-17 13:43:00,34.2,22.0,29.95,WNW,292,5.0,14.3,61,0.00,,,0.00,WUHU21623XXSP,2013-01-17 18:43:00,
2013-01-17 13:48:00,34.3,21.7,29.95,SW,225,3.4,12.7,60,0.00,,,0.00,WUHU21623XXSP,2013-01-17 18:48:00,
2013-01-17 13:53:00,34.3,21.7,29.95,WSW,247,2.5,12.7,60,0.00,,,0.00,WUHU21623XXSP,2013-01-17 18:53:00,
2013-01-17 13:58:00,34.2,21.2,29.95,West,270,7.8,12.4,59,0.00,,,0.00,WUHU21623XXSP,2013-01-17 18:58:00,
2013-01-17 14:03:00,34.0,20.2,29.95,West,270,7.6,15.9,57,0.00,,,0.00,WUHU21623XXSP,2013-01-17 19:03:00,
2013-01-17 14:08:00,33.4,19.2,29.95,WSW,247,6.6,15.9,56,0.00,,,0.00,WUHU21623XXSP,2013-01-17 19:08:00,
2013-01-17 14:13:00,33.3,19.1,29.95,WNW,292,5.6,12.9,56,0.00,,,0.00,WUHU21623XXSP,2013-01-17 19:13:00,
2013-01-17 14:18:00,32.9,18.3,29.96,WNW,292,2.8,11.2,55,0.00,,,0.00,WUHU21623XXSP,2013-01-17 19:18:00,
2013-01-17 14:23:00,32.9,18.3,29.96,WNW,292,1.7,11.2,55,0.00,,,0.00,WUHU21623XXSP,2013-01-17 19:23:00,
2013-01-17 14:28:00,32.5,17.9,29.97,WNW,292,1.9,9.1,55,0.00,,,0.00,WUHU21623XXSP,2013-01-17 19:28:00,
2013-01-17 14:33:00,32.5,17.5,29.97,WNW,292,1.3,9.9,54,0.00,,,0.00,WUHU21623XXSP,2013-01-17 19:33:00,
2013-01-17 14:38:00,32.2,17.2,29.97,WNW,292,0.9,11.4,54,0.00,,,0.00,WUHU21623XXSP,2013-01-17 19:38:00,
2013-01-17 14:43:00,32.0,17.0,29.97,WNW,292,1.1,11.4,54,0.00,,,0.00,WUHU21623XXSP,2013-01-17 19:43:00,
2013-01-17 14:48:00,31.6,16.6,29.98,WNW,292,2.5,6.9,54,0.00,,,0.00,WUHU21623XXSP,2013-01-17 19:48:00,
2013-01-17 14:53:00,31.3,16.3,29.98,WNW,292,2.3,6.4,54,0.00,,,0.00,WUHU21623XXSP,2013-01-17 19:53:00,
2013-01-17 14:58:00,30.9,15.5,29.98,WNW,292,0.0,5.4,53,0.00,,,0.00,WUHU21623XXSP,2013-01-17 19:58:00,
2013-01-17 15:03:00,30.9,16.0,29.98,WNW,292,0.0,5.4,54,0.00,,,0.00,WUHU21623XXSP,2013-01-17 20:03:00,
2013-01-17 15:08:00,30.6,15.2,29.98,WNW,292,3.7,7.2,53,0.00,,,0.00,WUHU21623XXSP,2013-01-17 20:08:00,
2013-01-17 15:13:00,30.4,15.1,29.98,WNW,292,0.0,7.2,53,0.00,,,0.00,WUHU21623XXSP,2013-01-17 20:13:00,
2013-01-17 15:18:00,30.4,15.1,29.99,WNW,292,1.0,6.3,53,0.00,,,0.00,WUHU21623XXSP,2013-01-17 20:18:00,
2013-01-17 15:23:00,29.8,14.5,30.00,WNW,292,4.5,7.5,53,0.00,,,0.00,WUHU21623XXSP,2013-01-17 20:23:00,
2013-01-17 15:28:00,29.7,14.4,30.00,WNW,292,3.4,7.5,53,0.00,,,0.00,WUHU21623XXSP,2013-01-17 20:28:00,
2013-01-17 15:33:00,29.3,14.0,29.99,WNW,292,3.2,10.4,53,0.00,,,0.00,WUHU21623XXSP,2013-01-17 20:33:00,
2013-01-17 15:38:00,29.1,13.8,30.00,WNW,292,0.9,10.4,53,0.00,,,0.00,WUHU21623XXSP,2013-01-17 20:38:00,
2013-01-17 15:43:00,28.9,13.2,30.01,WNW,292,0.0,5.9,52,0.00,,,0.00,WUHU21623XXSP,2013-01-17 20:43:00,
2013-01-17 15:48:00,28.6,12.9,30.01,WNW,292,3.7,5.9,52,0.00,,,0.00,WUHU21623XXSP,2013-01-17 20:48:00,
2013-01-17 15:53:00,27.9,12.3,30.01,WNW,292,1.4,6.5,52,0.00,,,0.00,WUHU21623XXSP,2013-01-17 20:53:00,
2013-01-17 15:58:00,27.3,11.3,30.02,WNW,292,0.0,7.0,51,0.00,,,0.00,WUHU21623XXSP,2013-01-17 20:58:00,
2013-01-17 16:03:00,27.0,10.5,30.01,WNW,292,0.0,7.0,50,0.00,,,0.00,WUHU21623XXSP,2013-01-17 21:03:00,
2013-01-17 16:09:00,26.8,10.3,30.02,WNW,292,0.0,7.5,50,0.00,,,0.00,WUHU21623XXSP,2013-01-17 21:09:00,
2013-01-17 16:14:00,26.1,9.2,30.02,WNW,292,1.4,7.5,49,0.00,,,0.00,WUHU21623XXSP,2013-01-17 21:14:00,
2013-01-17 16:19:00,25.7,8.8,30.02,WNW,292,4.1,8.6,49,0.00,,,0.00,WUHU21623XXSP,2013-01-17 21:19:00,
2013-01-17 16:24:00,25.3,8.0,30.02,WNW,292,4.2,10.4,48,0.00,,,0.00,WUHU21623XXSP,2013-01-17 21:24:00,
2013-01-17 16:29:00,25.2,7.9,30.02,WNW,292,1.7,10.4,48,0.00,,,0.00,WUHU21623XXSP,2013-01-17 21:29:00,
2013-01-17 16:34:00,25.0,7.7,30.02,WNW,292,0.7,7.8,48,0.00,,,0.00,WUHU21623XXSP,2013-01-17 21:34:00,
2013-01-17 16:39:00,24.4,7.2,30.02,WNW,292,3.4,7.4,48,0.00,,,0.00,WUHU21623XXSP,2013-01-17 21:39:00,
2013-01-17 16:44:00,24.1,6.4,30.02,WNW,292,5.2,7.9,47,0.00,,,0.00,WUHU21623XXSP,2013-01-17 21:44:00,
2013-01-17 16:49:00,23.7,6.0,30.03,WNW,292,5.4,10.5,47,0.00,,,0.00,WUHU21623XXSP,2013-01-17 21:49:00,
2013-01-17 16:54:00,23.4,5.8,30.02,WNW,292,4.4,10.5,47,0.00,,,0.00,WUHU21623XXSP,2013-01-17 21:54:00,
2013-01-17 16:59:00,23.2,5.6,30.02,WNW,292,4.7,10.9,47,0.00,,,0.00,WUHU21623XXSP,2013-01-17 21:59:00,
2013-01-17 17:04:00,22.8,5.2,30.02,WNW,292,1.8,10.9,47,0.00,,,0.00,WUHU21623XXSP,2013-01-17 22:04:00,
2013-01-17 17:09:00,22.6,5.0,30.03,WNW,292,5.0,9.6,47,0.00,,,0.00,WUHU21623XXSP,2013-01-17 22:09:00,
2013-01-17 17:14:00,22.5,4.9,30.02,WNW,292,4.8,9.7,47,0.00,,,0.00,WUHU21623XXSP,2013-01-17 22:14:00,
2013-01-17 17:19:00,22.3,4.8,30.03,WNW,292,1.7,9.8,47,0.00,,,0.00,WUHU21623XXSP,2013-01-17 22:19:00,
2013-01-17 17:24:00,22.1,4.6,30.04,WNW,292,4.0,9.8,47,0.00,,,0.00,WUHU21623XXSP,2013-01-17 22:24:00,
2013-01-17 17:29:00,21.9,4.4,30.04,WNW,292,2.6,8.0,47,0.00,,,0.00,WUHU21623XXSP,2013-01-17 22:29:00,
2013-01-17 17:34:00,21.9,4.4,30.04,WNW,292,0.0,5.4,47,0.00,,,0.00,WUHU21623XXSP,2013-01-17 22:34:00,
2013-01-17 17:39:00,21.9,4.4,30.05,WNW,292,0.0,3.2,47,0.00,,,0.00,WUHU21623XXSP,2013-01-17 22:39:00,
2013-01-17 17:44:00,21.6,4.1,30.05,WNW,292,0.0,1.9,47,0.00,,,0.00,WUHU21623XXSP,2013-01-17 22:44:00,
2013-01-17 17:49:00,21.6,4.1,30.05,WNW,292,0.0,1.8,47,0.00,,,0.00,WUHU21623XXSP,2013-01-17 22:49:00,
2013-01-17 17:54:00,21.4,3.4,30.06,WNW,292,0.0,3.6,46,0.00,,,0.00,WUHU21623XXSP,2013-01-17 22:54:00,
2013-01-17 17:59:00,21.4,3.4,30.05,WNW,292,0.0,3.6,46,0.00,,,0.00,WUHU21623XXSP,2013-01-17 22:59:00,
2013-01-17 18:04:00,21.4,3.4,30.05,WNW,292,0.0,2.3,46,0.00,,,0.00,WUHU21623XXSP,2013-01-17 23:04:00,
2013-01-17 18:09:00,21.0,2.6,30.05,WNW,292,0.0,2.3,45,0.00,,,0.00,WUHU21623XXSP,2013-01-17 23:09:00,
2013-01-17 18:14:00,20.8,2.4,30.05,WNW,292,0.0,2.9,45,0.00,,,0.00,WUHU21623XXSP,2013-01-17 23:14:00,
2013-01-17 18:19:00,20.7,1.8,30.06,WNW,292,0.0,2.9,44,0.00,,,0.00,WUHU21623XXSP,2013-01-17 23:19:00,
2013-01-17 18:24:00,20.7,1.8,30.05,WNW,292,0.0,2.6,44,0.00,,,0.00,WUHU21623XXSP,2013-01-17 23:24:00,
2013-01-17 18:29:00,20.7,1.8,30.05,WNW,292,0.0,1.5,44,0.00,,,0.00,WUHU21623XXSP,2013-01-17 23:29:00,
2013-01-17 18:34:00,20.7,1.8,30.06,WNW,292,0.0,1.5,44,0.00,,,0.00,WUHU21623XXSP,2013-01-17 23:34:00,
2013-01-17 18:39:00,20.5,2.1,30.06,WNW,292,0.5,1.3,45,0.00,,,0.00,WUHU21623XXSP,2013-01-17 23:39:00,
2013-01-17 18:44:00,20.5,2.1,30.07,WNW,292,0.0,2.0,45,0.00,,,0.00,WUHU21623XXSP,2013-01-17 23:44:00,
2013-01-17 18:49:00,20.3,1.9,30.07,WNW,292,0.0,2.0,45,0.00,,,0.00,WUHU21623XXSP,2013-01-17 23:49:00,
2013-01-17 18:54:00,20.3,1.9,30.07,WNW,292,1.4,1.8,45,0.00,,,0.00,WUHU21623XXSP,2013-01-17 23:54:00,
2013-01-17 18:59:00,20.1,1.8,30.07,WNW,292,1.2,2.6,45,0.00,,,0.00,WUHU21623XXSP,2013-01-17 23:59:00,
2013-01-17 19:04:00,20.1,1.8,30.07,WNW,292,1.9,3.1,45,0.00,,,0.00,WUHU21623XXSP,2013-01-18 00:04:00,
2013-01-17 19:09:00,19.9,1.6,30.07,WNW,292,0.0,3.3,45,0.00,,,0.00,WUHU21623XXSP,2013-01-18 00:09:00,
2013-01-17 19:14:00,19.8,1.5,30.07,WNW,292,0.4,5.5,45,0.00,,,0.00,WUHU21623XXSP,2013-01-18 00:14:00,
2013-01-17 19:19:00,19.8,1.5,30.07,WNW,292,2.4,5.5,45,0.00,,,0.00,WUHU21623XXSP,2013-01-18 00:19:00,
2013-01-17 19:24:00,19.8,2.0,30.07,WNW,292,3.6,5.9,46,0.00,,,0.00,WUHU21623XXSP,2013-01-18 00:24:00,
2013-01-17 19:29:00,19.6,1.8,30.07,WNW,292,2.1,5.9,46,0.00,,,0.00,WUHU21623XXSP,2013-01-18 00:29:00,
2013-01-17 19:34:00,19.6,1.8,30.07,WNW,292,1.0,5.5,46,0.00,,,0.00,WUHU21623XXSP,2013-01-18 00:34:00,
2013-01-17 19:39:00,19.6,1.8,30.08,WNW,292,0.0,5.3,46,0.00,,,0.00,WUHU21623XXSP,2013-01-18 00:39:00,
2013-01-17 19:44:00,19.6,1.8,30.07,WNW,292,0.3,2.8,46,0.00,,,0.00,WUHU21623XXSP,2013-01-18 00:44:00,
2013-01-17 19:49:00,19.2,0.9,30.08,WNW,292,0.0,2.9,45,0.00,,,0.00,WUHU21623XXSP,2013-01-18 00:49:00,
2013-01-17 19:54:00,19.2,0.9,30.08,WNW,292,0.0,2.9,45,0.00,,,0.00,WUHU21623XXSP,2013-01-18 00:54:00,
2013-01-17 19:59:00,19.0,0.8,30.08,WNW,292,0.0,5.8,45,0.00,,,0.00,WUHU21623XXSP,2013-01-18 00:59:00,
2013-01-17 20:04:00,19.0,0.3,30.08,WNW,292,1.0,6.8,44,0.00,,,0.00,WUHU21623XXSP,2013-01-18 01:04:00,
2013-01-17 20:09:00,18.9,0.2,30.08,WNW,292,0.0,6.8,44,0.00,,,0.00,WUHU21623XXSP,2013-01-18 01:09:00,
2013-01-17 20:14:00,18.9,0.2,30.09,WNW,292,0.0,5.1,44,0.00,,,0.00,WUHU21623XXSP,2013-01-18 01:14:00,
2013-01-17 20:19:00,18.7,0.0,30.09,WNW,292,0.0,3.8,44,0.00,,,0.00,WUHU21623XXSP,2013-01-18 01:19:00,
2013-01-17 20:24:00,18.5,-0.7,30.09,WNW,292,0.0,2.7,43,0.00,,,0.00,WUHU21623XXSP,2013-01-18 01:24:00,
2013-01-17 20:29:00,18.5,-0.7,30.08,WNW,292,2.5,3.1,43,0.00,,,0.00,WUHU21623XXSP,2013-01-18 01:29:00,
2013-01-17 20:34:00,18.3,-0.9,30.08,WNW,292,0.0,5.7,43,0.00,,,0.00,WUHU21623XXSP,2013-01-18 01:34:00,
2013-01-17 20:39:00,18.3,-0.9,30.08,WNW,292,0.0,5.7,43,0.00,,,0.00,WUHU21623XXSP,2013-01-18 01:39:00,
2013-01-17 20:44:00,18.1,-1.1,30.07,WNW,292,0.5,4.4,43,0.00,,,0.00,WUHU21623XXSP,2013-01-18 01:44:00,
2013-01-17 20:49:00,18.1,-1.6,30.07,WNW,292,1.3,4.7,42,0.00,,,0.00,WUHU21623XXSP,2013-01-18 01:49:00,
2013-01-17 20:54:00,18.1,-1.1,30.06,WNW,292,0.0,4.7,43,0.00,,,0.00,WUHU21623XXSP,2013-01-18 01:54:00,
2013-01-17 20:59:00,18.1,-1.1,30.05,WNW,292,2.4,3.2,43,0.00,,,0.00,WUHU21623XXSP,2013-01-18 01:59:00,
2013-01-17 21:04:00,18.0,-1.2,30.06,WNW,292,1.8,5.6,43,0.00,,,0.00,WUHU21623XXSP,2013-01-18 02:04:00,
2013-01-17 21:09:00,18.0,-1.2,30.07,WNW,292,1.6,6.7,43,0.00,,,0.00,WUHU21623XXSP,2013-01-18 02:09:00,
2013-01-17 21:14:00,18.0,-1.2,30.06,WNW,292,0.3,6.7,43,0.00,,,0.00,WUHU21623XXSP,2013-01-18 02:14:00,
2013-01-17 21:19:00,17.8,-1.3,30.06,WNW,292,0.0,7.2,43,0.00,,,0.00,WUHU21623XXSP,2013-01-18 02:19:00,
2013-01-17 21:24:00,17.8,-1.3,30.06,WNW,292,0.0,7.2,43,0.00,,,0.00,WUHU21623XXSP,2013-01-18 02:24:00,
2013-01-17 21:29:00,17.4,-2.2,30.07,WNW,292,0.0,5.7,42,0.00,,,0.00,WUHU21623XXSP,2013-01-18 02:29:00,
2013-01-17 21:34:00,17.6,-2.0,30.07,WNW,292,0.0,5.2,42,0.00,,,0.00,WUHU21623XXSP,2013-01-18 02:34:00,
2013-01-17 21:39:00,17.2,-2.4,30.07,WNW,292,0.0,3.8,42,0.00,,,0.00,WUHU21623XXSP,2013-01-18 02:39:00,
2013-01-17 21:44:00,17.2,-2.4,30.06,WNW,292,0.5,3.8,42,0.00,,,0.00,WUHU21623XXSP,2013-01-18 02:44:00,
2013-01-17 21:49:00,17.4,-2.2,30.06,WNW,292,0.0,4.5,42,0.00,,,0.00,WUHU21623XXSP,2013-01-18 02:49:00,
2013-01-17 21:54:00,17.2,-2.4,30.06,WNW,292,2.6,4.5,42,0.00,,,0.00,WUHU21623XXSP,2013-01-18 02:54:00,
2013-01-17 21:59:00,17.2,-2.4,30.06,WNW,292,0.0,4.5,42,0.00,,,0.00,WUHU21623XXSP,2013-01-18 02:59:00,
2013-01-17 22:04:00,17.1,-2.5,30.06,WNW,292,1.3,5.1,42,0.00,,,0.00,WUHU21623XXSP,2013-01-18 03:04:00,
2013-01-17 22:09:00,17.1,-2.5,30.06,WNW,292,0.9,6.3,42,0.00,,,0.00,WUHU21623XXSP,2013-01-18 03:09:00,
2013-01-17 22:14:00,16.9,-2.7,30.06,WNW,292,1.3,6.3,42,0.00,,,0.00,WUHU21623XXSP,2013-01-18 03:14:00,
2013-01-17 22:19:00,16.7,-2.9,30.06,WNW,292,0.2,4.8,42,0.00,,,0.00,WUHU21623XXSP,2013-01-18 03:19:00,
2013-01-17 22:24:00,16.7,-3.4,30.07,WNW,292,1.5,5.8,41,0.00,,,0.00,WUHU21623XXSP,2013-01-18 03:24:00,
2013-01-17 22:29:00,16.5,-3.6,30.06,WNW,292,0.0,5.8,41,0.00,,,0.00,WUHU21623XXSP,2013-01-18 03:29:00,
2013-01-17 22:34:00,16.5,-4.1,30.07,WNW,292,0.0,5.6,40,0.00,,,0.00,WUHU21623XXSP,2013-01-18 03:34:00,
2013-01-17 22:39:00,16.3,-4.3,30.07,WNW,292,4.5,6.2,40,0.00,,,0.00,WUHU21623XXSP,2013-01-18 03:39:00,
2013-01-17 22:44:00,16.3,-4.3,30.07,WNW,292,2.5,6.2,40,0.00,,,0.00,WUHU21623XXSP,2013-01-18 03:44:00,
2013-01-17 22:49:00,16.3,-4.3,30.07,WNW,292,0.0,12.4,40,0.00,,,0.00,WUHU21623XXSP,2013-01-18 03:49:00,
2013-01-17 22:54:00,16.2,-4.9,30.07,WNW,292,2.8,12.4,39,0.00,,,0.00,WUHU21623XXSP,2013-01-18 03:54:00,
2013-01-17 22:59:00,16.2,-4.9,30.07,WNW,292,0.0,5.7,39,0.00,,,0.00,WUHU21623XXSP,2013-01-18 03:59:00,
2013-01-17 23:04:00,16.2,-5.5,30.07,WNW,292,0.0,5.1,38,0.00,,,0.00,WUHU21623XXSP,2013-01-18 04:04:00,
2013-01-17 23:09:00,16.0,-5.1,30.06,WNW,292,1.0,4.5,39,0.00,,,0.00,WUHU21623XXSP,2013-01-18 04:09:00,
2013-01-17 23:14:00,16.0,-5.6,30.06,WNW,292,0.9,4.5,38,0.00,,,0.00,WUHU21623XXSP,2013-01-18 04:14:00,
2013-01-17 23:19:00,16.0,-5.6,30.06,WNW,292,0.8,3.9,38,0.00,,,0.00,WUHU21623XXSP,2013-01-18 04:19:00,
2013-01-17 23:24:00,16.0,-5.6,30.05,WNW,292,0.0,7.7,38,0.00,,,0.00,WUHU21623XXSP,2013-01-18 04:24:00,
2013-01-17 23:29:00,15.6,-6.0,30.05,WNW,292,6.1,7.7,38,0.00,,,0.00,WUHU21623XXSP,2013-01-18 04:29:00,
2013-01-17 23:34:00,15.4,-6.7,30.05,WNW,292,0.7,7.8,37,0.00,,,0.00,WUHU21623XXSP,2013-01-18 04:34:00,
2013-01-17 23:39:00,15.4,-7.3,30.05,WNW,292,0.0,8.6,36,0.00,,,0.00,WUHU21623XXSP,2013-01-18 04:39:00,
2013-01-17 23:44:00,15.3,-7.4,30.07,WNW,292,1.1,8.6,36,0.00,,,0.00,WUHU21623XXSP,2013-01-18 04:44:00,
2013-01-17 23:49:00,15.3,-8.0,30.07,WNW,292,0.8,8.2,35,0.00,,,0.00,WUHU21623XXSP,2013-01-18 04:49:00,
2013-01-17 23:54:00,15.3,-8.6,30.05,WNW,292,0.8,8.2,34,0.00,,,0.00,WUHU21623XXSP,2013-01-18 04:54:00,
2013-01-17 23:59:00,15.1,-8.8,30.06,WNW,292,1.9,7.0,34,0.00,,,0.00,WUHU21623XXSP,2013-01-18 04:59:00,